Location: Angwan Shehu
(11.2514°N, 7.4613°E)
Time: 04:40:55
(UTC+00:00)

Cosmos 2369 - Pass Details

Date: 14 November 2019
Orbit: 838 x 858 km, 71.0° (Epoch: 15 December)

Event Time Altitude Azimuth Distance (km) Brightness Sun altitude
Rises 17:15:33 0° 202° (SSW) 3,378 7.5 -3.7°
Reaches altitude 10° 17:18:01 10° 206° (SSW) 2,445 6.8 -4.3°
Maximum altitude 17:23:33 63° 286° (WNW) 928 4.3 -5.6°
Drops below altitude 10° 17:29:07 10° 7° (N) 2,454 5.9 -6.9°
Sets 17:31:36 0° 11° (N) 3,391 6.6 -7.5°
